Flag for United Arab Emirates Weather past 2 weeks in Dubai, Dubai, United Arab Emirates

Now
91 °F

Sunny.


Feels Like: 99 °F
Forecast: 91 / 100 °F
Wind: 13 mph from Southeast

Location: Dubai International Airport

Current Time: Sep 5, 2015 at 9:52:46 AM

Latest Report: Sep 5, 2015 at 9:00 AM


Visibility: 10 mi

Pressure: 29.86 "Hg

Humidity: 52%

Dew point: 72 °F

Historic Weather in Dubai — Graph

°F

Dubai temperature yesterday

Maximum temperature yesterday: 102 °F (at 12:00 PM)
Minimum temperature yesterday: 91 °F (at 2:00 AM)
Average temperature yesterday: 95 °F

Past Weeks' High & Low Weather Summary

 TemperatureHumidityPressure
High111 °F (Aug 24, 1:00 PM)80% (Aug 28, 6:00 AM)29.86 "Hg (Aug 28, 6:00 AM)
Low88 °F (Sep 5, 6:00 AM)12% (Aug 27, 11:00 AM)29.50 "Hg (Aug 23, 5:00 PM)
Average99 °F39%29.58 "Hg
* Reported Aug 21 8:00 AM — Sep 5 8:00 AM, Dubai, Weather by CustomWeather, © 2015

Note: Actual official high and low records may vary slightly from our data, if they occured in-between our weather recording intervals... More about our weather records

Advertising

Dubai weather history for previous 24 hours

 ConditionsComfort  
Time TempWeatherWind HumidityBarometerVisibility
8:00 AM
Sat, Sep 5
91 °FSunny.12 mph52%29.86 "Hg10 mi
7:00 AM90 °FSunny.12 mph63%29.83 "Hg10 mi
6:00 AM88 °FSunny.10 mph62%29.80 "Hg10 mi
5:00 AM90 °FPassing clouds.12 mph49%29.77 "HgN/A
4:00 AM90 °FClear.12 mph52%29.77 "Hg10 mi
3:00 AM90 °FClear.12 mph55%29.77 "Hg10 mi
2:00 AM90 °FClear.15 mph55%29.77 "Hg10 mi
1:00 AM90 °FPassing clouds.17 mph59%29.77 "HgN/A
12:00 AM91 °FClear.15 mph52%29.77 "Hg10 mi
11:00 PM
Fri, Sep 4
91 °FPassing clouds.14 mph52%29.77 "HgN/A
10:00 PM93 °FClear.15 mph47%29.74 "Hg10 mi
9:00 PM95 °FClear.12 mph44%29.74 "Hg5 mi
8:00 PM93 °FClear.13 mph53%29.71 "Hg5 mi
7:00 PM95 °FDuststorm.16 mph50%29.71 "Hg2 mi
6:00 PM97 °FDuststorm.21 mph47%29.71 "Hg2 mi
5:00 PM97 °FLow level haze.25 mph47%29.68 "Hg1 mi
4:00 PM99 °FLow level haze.25 mph42%29.68 "Hg1 mi
3:00 PM100 °FDuststorm.24 mph40%29.68 "Hg2 mi
2:00 PM100 °FDuststorm.22 mph40%29.68 "Hg2 mi
1:00 PM100 °FLow level haze.22 mph40%29.68 "Hg1 mi
12:00 PM102 °FPassing clouds.21 mph35%29.71 "Hg2 mi
11:00 AM100 °FDuststorm.20 mph40%29.71 "Hg3 mi
10:00 AM99 °FClear.21 mph44%29.71 "Hg4 mi
9:00 AM95 °FClear.21 mph50%29.71 "Hg4 mi
Weather by CustomWeather, © 2015

See weather overviewHow to use our weather pages